Weather reports worldwide

Advertisment
Wittmund, Germany (10126): temperature & dewpoint: 11.06.2019 20:00:00 - 17.06.2019 20:00:00 (CEST)Wittmund, Germany (10126): wind speed & gusts: 11.06.2019 20:00:00 - 17.06.2019 20:00:00 (CEST)Wittmund, Germany (10126): wind direction: 11.06.2019 20:00:00 - 17.06.2019 20:00:00 (CEST)Wittmund, Germany (10126): reduced air pressure: 11.06.2019 20:00:00 - 17.06.2019 20:00:00 (CEST)Wittmund, Germany (10126): visibility: 11.06.2019 20:00:00 - 17.06.2019 20:00:00 (CEST)
Date & Time tt [°C] td [°C] ff [km/h] ff [kn] fx [km/h] fx [kn] dd ppp [hPa] vv [km]
17.06.2019 20:00:00 - - - - - - - - -
17.06.2019 19:00:00 25,3 11,9 7 4 - - SW 1018,3 40
17.06.2019 18:00:00 24,8 11,4 11 6 - - S 1018,6 40
17.06.2019 17:00:00 25,4 11,4 7 4 - - SSE 1019,1 40
17.06.2019 16:00:00 24,4 11,9 11 6 - - SSW 1019,6 40
17.06.2019 15:00:00 23,9 12,1 7 4 - - SSW 1020,0 40
17.06.2019 14:00:00 24,0 12,8 11 6 - - SSW 1020,4 40
17.06.2019 13:00:00 22,9 12,1 14 8 - - SSW 1020,8 40
17.06.2019 12:00:00 22,2 12,6 14 8 - - SSW 1021,2 40
17.06.2019 11:00:00 21,3 12,8 14 8 - - SSW 1021,5 40
17.06.2019 10:00:00 20,5 13,0 11 6 - - SSW 1021,7 40
17.06.2019 09:00:00 18,5 14,5 11 6 - - SSW 1021,8 30
17.06.2019 08:00:00 16,5 14,0 11 6 - - SSW 1021,6 30
17.06.2019 07:00:00 14,8 13,4 7 4 - - SSW 1021,4 7
17.06.2019 06:00:00 13,3 12,7 11 6 - - S 1021,3 3,7
17.06.2019 05:00:00 12,8 12,1 11 6 - - S 1021,3 0,3
17.06.2019 04:00:00 12,5 11,7 7 4 - - S 1021,2 0,3
17.06.2019 03:00:00 12,8 12,0 7 4 - - S 1021,2 0,3
17.06.2019 02:00:00 13,3 12,4 7 4 - - SSE 1021,2 0,3
17.06.2019 01:00:00 13,9 13,0 11 6 - - SSE 1021,3 0,3
17.06.2019 00:00:00 14,2 13,4 7 4 - - SSE 1021,2 0,3
16.06.2019 23:00:00 14,4 13,6 7 4 - - SE 1021,2 0,3
16.06.2019 22:00:00 15,3 14,1 7 4 - - SE 1021,0 0,3
16.06.2019 21:00:00 15,9 14,4 7 4 - - E 1020,9 0,3
16.06.2019 20:00:00 16,1 14,7 7 4 - - ENE 1020,9 0,3
16.06.2019 19:00:00 15,9 14,6 7 4 - - N 1020,8 0,3
16.06.2019 18:00:00 17,5 15,0 11 6 - - ENE 1020,1 0,3
16.06.2019 17:00:00 16,7 14,8 7 4 - - ENE 1020,2 0,3
16.06.2019 16:00:00 19,5 14,3 11 6 - - N 1019,6 0,3
16.06.2019 15:00:00 20,1 13,8 14 8 - - NW 1019,2 0,3
16.06.2019 14:00:00 20,5 13,4 25 14 - - W 1019,1 0,3
16.06.2019 13:00:00 21,7 11,2 22 12 - - SW 1018,7 0,3
16.06.2019 12:00:00 20,9 12,4 18 10 - - SSW 1018,5 0,3
16.06.2019 11:00:00 19,4 13,2 18 10 - - SSW 1018,3 0,3
16.06.2019 10:00:00 18,4 13,4 14 8 - - SSW 1018,3 0,4
16.06.2019 09:00:00 15,8 13,3 11 6 - - S 1018,3 0,4
16.06.2019 08:00:00 13,7 12,8 7 4 - - SSW 1018,0 0,3
16.06.2019 07:00:00 11,8 11,3 7 4 - - S 1017,9 0,3
16.06.2019 06:00:00 10,5 10,0 7 4 - - S 1017,7 -
16.06.2019 05:00:00 10,3 9,9 7 4 - - S 1017,6 -
16.06.2019 04:00:00 10,6 10,1 4 2 - - S 1017,3 -
16.06.2019 03:00:00 10,5 9,9 7 4 - - S 1017,6 0,1
16.06.2019 02:00:00 11,0 10,2 7 4 - - SW 1017,3 0,1
16.06.2019 01:00:00 11,3 10,4 4 2 - - E 1016,6 0,3
16.06.2019 00:00:00 11,8 10,6 4 2 - - SE 1016,4 0,6
15.06.2019 23:00:00 13,3 11,7 7 4 - - WSW 1016,1 5
15.06.2019 22:00:00 14,4 11,9 11 6 - - NW 1015,9 6
15.06.2019 21:00:00 15,5 12,1 22 12 - - WNW 1015,7 6
15.06.2019 20:00:00 16,2 13,3 22 12 - - W 1014,8 6
15.06.2019 19:00:00 16,2 13,5 22 12 - - WNW 1014,2 6
15.06.2019 18:00:00 16,3 13,6 29 16 47 25 WNW 1013,1 6
15.06.2019 17:00:00 17,4 15,3 29 16 - - W 1011,9 5
15.06.2019 16:00:00 19,9 15,7 14 8 - - WSW 1011,1 3,5
15.06.2019 15:00:00 19,9 16,1 11 6 - - W 1010,8 6
15.06.2019 14:00:00 17,1 15,7 11 6 - - WNW 1010,8 5
15.06.2019 13:00:00 17,4 15,2 22 12 - - W 1010,2 6
15.06.2019 12:00:00 18,6 15,9 22 12 - - WNW 1009,5 5
15.06.2019 11:00:00 18,5 16,2 18 10 - - NW 1009,2 5
15.06.2019 10:00:00 18,3 16,3 14 8 - - NE 1009,1 5
15.06.2019 09:00:00 17,9 17,0 14 8 - - NNE 1008,7 4,9
15.06.2019 08:00:00 16,4 15,4 11 6 - - N 1009,8 3,7
15.06.2019 07:00:00 16,6 15,3 11 6 - - ENE 1010,0 5
15.06.2019 06:00:00 17,1 14,9 11 6 - - E 1010,6 6
15.06.2019 05:00:00 17,4 14,7 11 6 - - E 1011,2 4,6
15.06.2019 04:00:00 17,6 14,2 11 6 - - E 1012,4 4,6
15.06.2019 03:00:00 17,3 14,0 14 8 - - NE 1012,3 4,4
15.06.2019 02:00:00 17,5 14,4 14 8 - - NE 1013,4 5
15.06.2019 01:00:00 17,3 14,2 11 6 - - ENE 1014,0 5
15.06.2019 00:00:00 16,8 13,6 11 6 - - NE 1014,6 5
14.06.2019 23:00:00 17,4 13,3 7 4 - - NE 1014,7 4,9
14.06.2019 22:00:00 19,3 13,3 14 8 - - E 1014,6 6
14.06.2019 21:00:00 21,1 13,1 18 10 - - E 1014,7 8
14.06.2019 20:00:00 24,2 9,8 4 2 - - W 1014,4 40
14.06.2019 19:00:00 24,2 9,5 7 4 - - SW 1014,4 40
14.06.2019 18:00:00 24,2 9,1 14 8 - - SW 1014,4 40
14.06.2019 17:00:00 24,0 11,3 11 6 - - ESE 1014,7 40
14.06.2019 16:00:00 22,6 9,5 11 6 - - ESE 1015,2 40
14.06.2019 15:00:00 20,7 13,8 7 4 - - NE 1015,9 25
14.06.2019 14:00:00 21,9 10,6 14 8 - - WSW 1015,4 25
14.06.2019 13:00:00 22,5 11,3 7 4 - - S 1014,9 40
14.06.2019 12:00:00 21,2 10,3 11 6 - - SE 1014,9 40
14.06.2019 11:00:00 21,0 10,3 11 6 - - SE 1015,0 40
14.06.2019 10:00:00 19,2 11,1 11 6 - - SE 1015,3 35
14.06.2019 09:00:00 17,6 11,8 14 8 - - SSE 1015,5 30
14.06.2019 08:00:00 15,3 11,6 11 6 - - SSE 1015,3 30
14.06.2019 07:00:00 13,8 10,9 11 6 - - SSE 1014,9 30
14.06.2019 06:00:00 12,5 10,7 7 4 - - SSE 1014,4 20
14.06.2019 05:00:00 11,6 9,9 4 2 - - N 1014,2 7
14.06.2019 04:00:00 11,7 9,8 11 6 - - SSE 1013,9 7
14.06.2019 03:00:00 11,8 9,4 7 4 - - S 1014,1 7
14.06.2019 02:00:00 12,4 10,3 11 6 - - SSE 1013,8 7
14.06.2019 01:00:00 13,3 10,9 14 8 - - S 1013,9 7
14.06.2019 00:00:00 13,8 10,8 11 6 - - S 1013,8 7
13.06.2019 23:00:00 14,2 10,9 11 6 - - SSE 1013,1 7
13.06.2019 22:00:00 15,9 10,0 7 4 - - SSE 1012,7 8
13.06.2019 21:00:00 16,4 10,1 14 8 47 25 S 1012,8 8
13.06.2019 20:00:00 19,9 8,0 22 12 - - S 1011,3 35
13.06.2019 19:00:00 19,9 7,7 14 8 - - S 1011,3 40
13.06.2019 18:00:00 20,3 6,8 22 12 - - SSW 1011,3 40
13.06.2019 17:00:00 21,0 6,0 29 16 - - SW 1011,4 40
13.06.2019 16:00:00 20,6 6,2 32 18 54 29 SSW 1011,4 40
13.06.2019 15:00:00 20,4 7,5 29 16 50 27 SSW 1011,2 35
13.06.2019 14:00:00 19,9 7,6 29 16 - - SW 1011,2 35
13.06.2019 13:00:00 19,1 8,5 29 16 50 27 SSW 1011,1 35
13.06.2019 12:00:00 18,3 9,3 25 14 - - SW 1010,9 35
13.06.2019 11:00:00 17,7 9,6 29 16 - - SSW 1010,6 35
13.06.2019 10:00:00 17,1 10,3 22 12 - - SSW 1010,3 35
13.06.2019 09:00:00 16,6 10,4 18 10 - - SSW 1010,4 30
13.06.2019 08:00:00 14,8 10,5 14 8 - - S 1010,6 25
13.06.2019 07:00:00 12,1 10,2 11 6 - - SSE 1010,5 20
13.06.2019 06:00:00 11,6 10,0 11 6 - - S 1010,2 15
13.06.2019 05:00:00 11,7 9,5 11 6 - - SSE 1009,9 7
13.06.2019 04:00:00 12,2 9,4 11 6 - - S 1009,8 7
13.06.2019 03:00:00 13,3 9,8 14 8 - - SSW 1009,8 7
13.06.2019 02:00:00 13,1 10,3 11 6 - - SSW 1009,8 7
13.06.2019 01:00:00 13,1 10,7 11 6 - - S 1009,9 7
13.06.2019 00:00:00 14,2 11,7 14 8 - - SSW 1010,2 6
12.06.2019 23:00:00 14,8 12,3 11 6 - - SSW 1009,5 6
12.06.2019 22:00:00 15,7 13,6 11 6 - - S 1009,0 6
12.06.2019 21:00:00 16,8 13,6 18 10 - - SW 1007,7 7
12.06.2019 20:00:00 17,0 14,5 18 10 - - SSW 1007,4 12
12.06.2019 19:00:00 17,8 16,9 14 8 - - ESE 1006,6 4,5
12.06.2019 18:00:00 17,2 16,6 7 4 - - E 1007,2 4,0
12.06.2019 17:00:00 16,8 16,1 11 6 - - ENE 1007,7 2,5
12.06.2019 16:00:00 16,6 15,8 4 2 - - E 1008,5 4,0
12.06.2019 15:00:00 16,7 15,5 7 4 - - NNE 1008,6 5
12.06.2019 14:00:00 16,9 15,1 11 6 - - NNE 1008,6 6
12.06.2019 13:00:00 16,6 14,6 18 10 - - NNE 1009,0 10
12.06.2019 12:00:00 17,5 14,6 18 10 - - NNE 1009,7 20
12.06.2019 11:00:00 17,9 13,2 18 10 - - NNE 1009,9 20
12.06.2019 10:00:00 16,9 12,9 18 10 - - NE 1010,5 20
12.06.2019 09:00:00 17,0 12,5 14 8 - - NNE 1010,6 20
12.06.2019 08:00:00 14,9 13,7 11 6 - - N 1010,0 20
12.06.2019 07:00:00 12,4 11,8 7 4 - - NNW 1010,0 15
12.06.2019 06:00:00 11,0 10,5 4 2 - - NNW 1011,1 6
12.06.2019 05:00:00 11,0 10,5 7 4 - - N 1011,7 0,4
12.06.2019 04:00:00 11,7 11,1 4 2 - - N 1012,6 1,8
12.06.2019 03:00:00 12,4 11,7 11 6 - - E 1013,8 4,5
12.06.2019 02:00:00 12,1 11,4 4 2 - - NNW 1012,2 5
12.06.2019 01:00:00 12,8 12,0 11 6 - - NW 1011,7 6
12.06.2019 00:00:00 13,0 11,9 11 6 - - NNW 1012,3 5
11.06.2019 23:00:00 14,1 12,4 7 4 - - NW 1013,1 6
11.06.2019 22:00:00 16,2 12,2 7 4 - - WNW 1012,9 7
11.06.2019 21:00:00 17,7 12,4 11 6 - - W 1012,6 8
11.06.2019 20:00:00 18,7 12,1 14 8 - - W 1012,1 25

tt = temperature
td = dewpoint
ff = wind speed
fx = gusts
dd = wind direction
ppp = reduced air pressure
vv = visibility

Next stations